Skip Page Navigation
NASA JPL Caltech
NASA Logo - Jet Propulsion Laboratory + View the NASA Portal
+ Center for Near-Earth Object Studies
JPL Home Earth Solar System Stars & Galaxies Technology
JPL Solar System Dynamics
BODIES ORBITS EPHEMERIDES TOOLS PHYSICAL DATA DISCOVERY FAQ SITE MAP
JPL Small-Body Database Browser
Search: [ help ]  
109738 (2001 RS63)
Classification: Main-belt Asteroid          SPK-ID: 2109738
Ephemeris | Orbit Diagram | Orbital Elements | Mission Design | Physical Parameters | Discovery Circumstances | Close-Approach Data ]

[ show orbit diagram ]
Orbital Elements at Epoch 2459000.5 (2020-May-31.0) TDB
Reference: JPL 22 (heliocentric ecliptic J2000)
 Element Value Uncertainty (1-sigma)   Units 
e .07613779128375076 4.6717e-08  
a 3.186633236401033 3.0947e-08 au
q 2.944010020150067 1.5561e-07 au
i 5.73255699216601 4.9813e-06 deg
node 57.33859441054449 5.3566e-05 deg
peri 180.8303742159636 6.7937e-05 deg
M 205.0533216450439 4.5489e-05 deg
tp 2459894.785767208683
(2022-Nov-11.28576721)
0.00026875 TDB
period 2077.765587575942
5.69
3.0268e-05
8.287e-08
d
yr
n .1732630486098289 2.524e-09 deg/d
Q 3.429256452651997 3.3304e-08 au
  Orbit Determination Parameters
   # obs. used (total)      603  
   data-arc span      6985 days (19.12 yr)  
   first obs. used      2001-09-11  
   last obs. used      2020-10-26  
   planetary ephem.      DE431  
   SB-pert. ephem.      SB431-N16  
   condition code      0  
   norm. resid. RMS      .58636  
   source      ORB  
   producer      Otto Matic  
   solution date      2020-Nov-12 19:10:13  

Additional Information
 Earth MOID = 1.93189 au 
 Jupiter MOID = 1.56522 au 
 T_jup = 3.186 
[ show covariance matrix ]

Ephemeris | Orbit Diagram | Orbital Elements | Mission Design | Physical Parameters | Discovery Circumstances | Close-Approach Data ]

Physical Parameter Table
Parameter Symbol Value Units Sigma Reference Notes
absolute magnitude H 14.6   n/a MPO273116  

109738 (2001 RS63)          Discovered 2001-Sep-11 by LONEOS at Anderson Mesa
Reference: 20051019/Numbers.arcLast Updated: 2005-10-26

[ hide close-approach data ]
Close-Approach Data   ...sorted by Date/Time (TDB)
Date/Time (TDB) Time Uncertainty
(days_HH:MM)
Body Nominal Distance (au) Minimum Distance (au) Maximum Distance (au) V-relative (km/s) V-infinity (km/s) JD (TDB) Time Uncertainty (minutes) Semi-major axis (km) Semi-minor axis (km) range-LOV angle (deg) N-sigma BP Orbit Ref. Reference Modified
1906-Aug-26 06:16 00:05 Jupiter 1.78596404632625 1.78596198117453 1.78596611148143 2.76825936077743 2.59127909307835 2417448.761306452 4.73847395032795 171.2255923866 21.5010860017554 -61.9345884396362 2233139.32689627 T 22 CATAB v2.0f-lin.ifort 2020-Nov-12 19:10:15 2020-Nov-12 19:10
1917-Aug-02 03:58 00:04 Jupiter 1.63573359238071 1.6357327731782 1.63573441158368 2.52983762228454 2.31612389588186 2421442.665563819 4.06514184077589 88.45722589734 22.5619470266423 -72.6468028018741 2203188.61886712 T 22 CATAB v2.0f-lin.ifort 2020-Nov-12 19:10:15 2020-Nov-12 19:10
1928-Jul-09 03:12 00:04 Jupiter 1.63463176524139 1.63463086410009 1.63463266638966 2.56736924192533 2.35691286414792 2425436.633462396 3.54646805303781 221.659947958899 14.6110917964879 -83.652538040429 1980500.11749421 T 22 CATAB v2.0f-lin.ifort 2020-Nov-12 19:10:15 2020-Nov-12 19:10
1939-Jun-05 14:02 00:03 Jupiter 1.78528484639916 1.78528336451379 1.78528632828941 2.97166668549301 2.80747386031745 2429420.084422918 3.1207850421597 186.024738183926 22.5495696581986 -74.9658713019097 2160575.62609102 T 22 CATAB v2.0f-lin.ifort 2020-Nov-12 19:10:15 2020-Nov-12 19:10
2037-Dec-27 08:32 00:01 Jupiter 1.95120435707158 1.95120381597441 1.95120489816887 3.07563091957454 2.93109207146262 2465419.855612547 1.04700477079553 61.0001657947713 15.1767941444619 -75.4671652902725 3209995.60041526 T 22 CATAB v2.0f-lin.ifort 2020-Nov-12 19:10:15 2020-Nov-12 19:10
2048-Nov-26 05:08 00:02 Jupiter 1.73750886699686 1.73750826303457 1.73750947095965 2.60596437918693 2.41165200121912 2469406.713969784 1.59378744874774 78.4899337058917 10.9113749372373 -75.284505876968 2760309.14392108 T 22 CATAB v2.0f-lin.ifort 2020-Nov-12 19:10:15 2020-Nov-12 19:10
2059-Nov-03 11:37 00:02 Jupiter 1.62433425614639 1.62433373048227 1.6243347818107 2.50971055458037 2.29253801421349 2473400.983876387 2.15944649863197 79.6981730952038 12.8465942508918 -80.3731488154488 2209836.45853393 T 22 CATAB v2.0f-lin.ifort 2020-Nov-12 19:10:15 2020-Nov-12 19:10
2070-Oct-10 00:33 00:03 Jupiter 1.66446427565897 1.66446347704952 1.66446507427164 2.69485691583713 2.4988961280545 2477394.523240600 2.80971166007316 170.087904122475 15.8990175210493 -82.2329618101124 2057418.96686519 T 22 CATAB v2.0f-lin.ifort 2020-Nov-12 19:10:15 2020-Nov-12 19:10
2081-Sep-02 09:39 00:03 Jupiter 1.84109330996191 1.84109192422456 1.84109469570335 3.23539113915088 3.08992328510804 2481374.901948238 3.45373132460927 174.774446180009 24.5762261249816 -73.1373451338257 2371589.56867432 T 22 CATAB v2.0f-lin.ifort 2020-Nov-12 19:10:15 2020-Nov-12 19:10
2180-Mar-24 16:12 00:07 Jupiter 1.89067553820069 1.89067250359176 1.89067857281498 2.83392445610556 2.67116602918342 2517372.174887886 7.46383763663467 229.450623544851 20.5798399142615 -59.8508715984113 2023569.94292898 T 22 CATAB v2.0f-lin.ifort 2020-Nov-12 19:10:15 2020-Nov-12 19:10
2191-Feb-26 07:34 00:08 Jupiter 1.70688293205878 1.70688061947066 1.70688524465651 2.50821978225926 2.30188786223999 2521362.815411313 7.94576162171621 247.5992709012 16.1577100622992 -66.7115503132374 2383650.01241601 T 22 CATAB v2.0f-lin.ifort 2020-Nov-12 19:10:15 2020-Nov-12 19:10
Ephemeris | Orbit Diagram | Orbital Elements | Mission Design | Physical Parameters | Discovery Circumstances | Close-Approach Data ]
ABOUT SSD CREDITS/AWARDS PRIVACY/COPYRIGHT GLOSSARY LINKS
FirstGov 2020-Nov-30 09:25 UT
(server date/time)  
NASA Home Page
Site Manager:   Ryan S. Park
Webmaster  Alan B. Chamberlin